KINEIS-2C

Last updated on Thu Oct 23 2025 00:02:50 GMT+0000 (Coordinated Universal Time)

1 62929U 25028B 25295.42582296 .00002275 00000+0 36764-3 0 9990 2 62929 98.0174 347.4077 0002531 71.4580 288.6902 14.72319402 37623
UTC large
Height (km)
Speed (km/s)
/
Latitude / Longitude
Inclination (degrees)
Orbital Period (minutes)
Azimuth
Elevation
Range (km)
Doppler Factor

Next 0 passes for location: London (51.5072 / 0.1276)

Sorry there are no passes over London.